EW5171 Weather Reports


time (UTC)temp
C
wind
direction
speed
KPH
gust
KPH
rain 1hr
cm
rain 24hr
cm
rain mn
cm
humidity
%
barometer
mb
20260902210050 10 305 0.0 0.0 0.00 0.05 0.05 91 1014.1
20260902205549 10 305 0.0 0.0 0.00 0.05 0.05 91 1014.1
20260902205048 10 305 0.0 1.6 0.00 0.05 0.05 91 1014.1
20260902204621 10 305 0.0 1.6 0.00 0.05 0.05 90 1014.0
20260902204047 10 305 0.0 1.6 0.00 0.05 0.05 90 1014.0
20260902203546 10 305 0.0 0.0 0.00 0.05 0.05 90 1014.1
20260902203050 10 305 0.0 1.6 0.00 0.05 0.05 90 1014.1
20260902202547 11 305 0.0 1.6 0.00 0.05 0.05 89 1014.1
20260902202044 11 305 0.0 1.6 0.00 0.05 0.05 89 1014.1
20260902201544 11 305 0.0 0.0 0.00 0.05 0.05 89 1014.1
20260902201047 11 305 0.0 1.6 0.00 0.05 0.05 89 1014.0
20260902200543 11 305 0.0 1.6 0.00 0.05 0.05 88 1014.0
20260902200044 11 305 0.0 1.6 0.00 0.05 0.05 88 1014.0
20260902195543 12 305 0.0 0.0 0.00 0.05 0.05 87 1014.0
20260902195044 12 305 0.0 0.0 0.00 0.05 0.05 87 1014.1
20260902194543 12 305 0.0 0.0 0.00 0.05 0.05 86 1014.1
20260902194043 12 305 0.0 0.0 0.00 0.05 0.05 86 1014.1
20260902193546 12 305 0.0 0.0 0.00 0.05 0.05 86 1014.2
20260902193042 12 305 0.0 1.6 0.00 0.05 0.05 86 1014.2
20260902192542 12 305 0.0 1.6 0.00 0.05 0.05 85 1014.1
20260902192041 13 305 0.0 3.2 0.00 0.05 0.05 84 1014.1
20260902191542 13 305 0.0 3.2 0.00 0.05 0.05 84 1014.1
20260902191041 13 305 0.0 0.0 0.00 0.05 0.05 84 1014.1
20260902190541 13 305 0.0 0.0 0.00 0.05 0.05 84 1014.0
20260902190041 13 305 0.0 0.0 0.00 0.05 0.05 83 1014.0
20260902185543 13 305 0.0 0.0 0.00 0.05 0.05 82 1014.0
20260902185044 14 305 0.0 0.0 0.00 0.05 0.05 82 1013.9
20260902184541 14 305 0.0 3.2 0.00 0.05 0.05 81 1013.9
20260902184041 15 305 0.0 3.2 0.00 0.05 0.05 81 1013.9
20260902183541 15 257 0.0 1.6 0.00 0.05 0.05 81 1013.9
20260902183054 15 257 0.0 1.6 0.00 0.05 0.05 81 1013.8
20260902182540 15 257 0.0 4.8 0.00 0.05 0.05 81 1013.7
20260902182043 15 259 0.0 4.8 0.00 0.05 0.05 80 1013.7
20260902181541 16 286 0.0 1.6 0.00 0.05 0.05 79 1013.7
20260902181038 16 286 0.0 4.8 0.00 0.05 0.05 78 1013.6
20260902180539 17 286 0.0 4.8 0.00 0.05 0.05 77 1013.6
20260902180045 17 331 0.0 1.6 0.00 0.05 0.05 77 1013.6
20260902175539 17 331 0.0 1.6 0.00 0.05 0.05 76 1013.5
20260902175044 18 331 0.0 1.6 0.00 0.05 0.05 75 1013.4
20260902174538 18 331 0.0 1.6 0.00 0.05 0.05 75 1013.3
20260902174040 18 331 0.0 3.2 0.00 0.05 0.05 76 1013.2
20260902173539 18 18 1.6 4.8 0.00 0.05 0.05 76 1013.2
20260902173053 17 245 0.0 4.8 0.00 0.05 0.05 78 1013.3
20260902172538 17 306 0.0 4.8 0.00 0.05 0.05 78 1013.3
20260902172041 17 282 0.0 6.4 0.00 0.05 0.05 77 1013.4
20260902171538 17 267 1.6 11.3 0.00 0.05 0.05 76 1013.4
20260902171039 18 205 1.6 4.8 0.00 0.05 0.05 77 1013.4
20260902170537 18 298 0.0 8.0 0.00 0.05 0.05 76 1013.3
20260902170041 18 245 1.6 8.0 0.00 0.05 0.05 75 1013.3
20260902165536 18 239 1.6 6.4 0.00 0.05 0.05 75 1013.2
20260902165037 18 55 1.6 11.3 0.00 0.05 0.05 75 1013.3
20260902164541 18 33 3.2 11.3 0.00 0.05 0.05 75 1013.2
20260902164036 18 202 1.6 9.7 0.00 0.05 0.05 76 1013.2
20260902163536 18 284 1.6 11.3 0.00 0.05 0.05 77 1013.1
20260902163042 18 290 1.6 9.7 0.00 0.05 0.05 79 1013.1
20260902162536 18 274 1.6 9.7 0.00 0.05 0.05 80 1013.2
20260902162036 18 262 3.2 12.9 0.00 0.05 0.05 79 1013.2
20260902161535 18 276 3.2 12.9 0.00 0.05 0.05 80 1013.1
20260902161035 18 5 3.2 12.9 0.00 0.05 0.05 80 1013.2
20260902160535 18 211 3.2 16.1 0.00 0.05 0.05 81 1013.2
20260902160036 18 186 3.2 9.7 0.00 0.05 0.05 81 1013.2
20260902155535 17 191 3.2 8.0 0.00 0.05 0.05 82 1013.2
20260902155035 17 69 3.2 8.0 0.00 0.05 0.05 83 1013.2
20260902154538 17 302 0.0 9.7 0.00 0.05 0.05 83 1013.2
20260902154034 17 304 3.2 9.7 0.00 0.05 0.05 82 1013.3
20260902153534 17 197 1.6 9.7 0.00 0.05 0.05 82 1013.3
20260902153034 17 333 3.2 9.7 0.00 0.05 0.05 81 1013.3
20260902152536 18 89 1.6 6.4 0.00 0.05 0.05 80 1013.3
20260902152033 18 286 1.6 8.0 0.00 0.05 0.05 80 1013.3
20260902151536 18 315 1.6 8.0 0.00 0.05 0.05 78 1013.3
20260902151032 18 98 0.0 9.7 0.00 0.05 0.05 77 1013.3
20260902150532 19 18 3.2 9.7 0.00 0.05 0.05 74 1013.3
20260902150033 19 67 1.6 12.9 0.00 0.05 0.05 73 1013.2
20260902145533 20 221 4.8 12.9 0.00 0.05 0.05 72 1013.2
20260902145034 20 180 4.8 14.5 0.00 0.05 0.05 73 1013.1
20260902144532 19 186 4.8 12.9 0.00 0.05 0.05 74 1013.3
20260902144031 19 173 4.8 12.9 0.00 0.05 0.05 74 1013.3
20260902143633 19 244 3.2 12.9 0.00 0.05 0.05 74 1013.2
20260902143031 19 182 1.6 12.9 0.00 0.05 0.05 75 1013.2
20260902142533 19 154 3.2 16.1 0.00 0.05 0.05 74 1013.2
20260902142031 20 182 3.2 16.1 0.00 0.05 0.05 75 1013.2
20260902141530 19 261 6.4 16.1 0.00 0.05 0.05 75 1013.1
20260902141030 20 292 4.8 16.1 0.00 0.05 0.05 75 1013.1
20260902140530 20 200 4.8 16.1 0.00 0.05 0.05 74 1013.1
20260902140029 20 220 6.4 16.1 0.00 0.05 0.05 75 1013.1
20260902135534 20 232 6.4 19.3 0.00 0.08 0.05 76 1013.1
20260902135028 20 305 4.8 14.5 0.00 0.08 0.05 77 1013.1
20260902134527 19 331 4.8 16.1 0.00 0.08 0.05 77 1013.2
20260902134025 19 209 3.2 11.3 0.00 0.08 0.05 79 1013.1
20260902133525 19 159 4.8 22.5 0.00 0.08 0.05 79 1013.1
20260902133028 19 287 4.8 22.5 0.00 0.08 0.05 80 1013.1
20260902132527 19 179 3.2 14.5 0.00 0.08 0.05 82 1013.0
20260902132021 19 225 3.2 14.5 0.00 0.08 0.05 83 1013.1
20260902131520 18 172 4.8 16.1 0.00 0.08 0.05 83 1013.1
20260902131020 18 213 6.4 16.1 0.00 0.08 0.05 84 1013.1
20260902130520 18 216 4.8 17.7 0.00 0.08 0.05 83 1013.1
20260902130019 18 201 4.8 17.7 0.00 0.08 0.05 85 1013.2
20260902125520 18 191 4.8 17.7 0.00 0.08 0.05 87 1013.2
20260902125019 17 120 3.2 12.9 0.00 0.08 0.05 88 1013.3
20260902124519 17 268 4.8 14.5 0.00 0.08 0.05 88 1013.3
20260902124023 17 209 4.8 14.5 0.00 0.08 0.05 88 1013.4
20260902123518 17 163 1.6 11.3 0.00 0.08 0.05 88 1013.4
20260902123018 17 273 3.2 12.9 0.00 0.08 0.05 89 1013.4
20260902122518 17 286 3.2 17.7 0.00 0.08 0.05 89 1013.4
20260902122017 17 306 8.0 17.7 0.00 0.08 0.05 89 1013.4
20260902121516 17 213 3.2 12.9 0.00 0.08 0.05 90 1013.4
20260902121017 17 213 6.4 16.1 0.00 0.08 0.05 89 1013.5
20260902120518 17 118 1.6 16.1 0.00 0.08 0.05 90 1013.5
20260902120018 17 249 4.8 16.1 0.00 0.08 0.05 90 1013.5
20260902115516 17 195 4.8 14.5 0.00 0.10 0.05 90 1013.4
20260902115016 17 296 3.2 11.3 0.00 0.10 0.05 89 1013.4
20260902114516 17 306 4.8 14.5 0.00 0.10 0.05 89 1013.3
20260902114016 17 113 4.8 14.5 0.00 0.10 0.05 89 1013.3
20260902113515 17 198 1.6 8.0 0.00 0.10 0.05 89 1013.4
20260902113015 17 177 3.2 11.3 0.00 0.10 0.05 88 1013.5
20260902112515 17 257 3.2 11.3 0.00 0.10 0.05 87 1013.6
20260902112019 18 301 4.8 12.9 0.00 0.10 0.05 86 1013.6
20260902111519 18 161 3.2 14.5 0.00 0.10 0.05 85 1013.6
20260902111016 18 242 6.4 22.5 0.00 0.10 0.05 83 1013.6
20260902110516 18 273 6.4 22.5 0.00 0.10 0.05 83 1013.6
20260902110033 18 203 4.8 16.1 0.00 0.10 0.05 84 1013.6
20260902105515 18 261 8.0 16.1 0.00 0.13 0.05 85 1013.6
20260902105011 18 207 4.8 17.7 0.00 0.13 0.05 85 1013.7
20260902104520 17 256 3.2 17.7 0.00 0.13 0.05 85 1013.8
20260902104010 18 274 4.8 16.1 0.00 0.13 0.05 85 1013.8
20260902103510 18 196 4.8 19.3 0.00 0.13 0.05 85 1013.8
20260902103019 18 200 6.4 16.1 0.00 0.13 0.05 84 1013.8
20260902102510 18 189 3.2 14.5 0.00 0.13 0.05 85 1013.8
20260902102011 18 173 3.2 19.3 0.00 0.13 0.05 84 1013.8
20260902101510 18 313 6.4 19.3 0.00 0.13 0.05 84 1013.8
20260902101010 18 206 1.6 16.1 0.00 0.13 0.05 84 1013.9
20260902100509 18 219 4.8 16.1 0.00 0.13 0.05 83 1013.9
20260902100012 18 332 4.8 16.1 0.00 0.13 0.05 83 1014.0
20260902095508 18 208 4.8 16.1 0.00 0.13 0.05 84 1014.0
20260902095008 18 269 3.2 22.5 0.00 0.13 0.05 84 1013.9
20260902094509 18 175 6.4 22.5 0.00 0.13 0.05 83 1013.9
20260902094009 18 165 6.4 20.9 0.00 0.13 0.05 83 1013.9
20260902093507 18 175 6.4 17.7 0.00 0.13 0.05 84 1013.9
20260902093008 18 198 3.2 17.7 0.00 0.13 0.05 84 1013.9
20260902092507 18 278 4.8 14.5 0.00 0.13 0.05 84 1013.8
20260902092011 18 284 4.8 17.7 0.00 0.13 0.05 84 1013.8
20260902091507 18 202 3.2 17.7 0.00 0.13 0.05 84 1013.7
20260902091007 18 260 3.2 17.7 0.00 0.13 0.05 84 1013.6
20260902090509 18 288 4.8 16.1 0.00 0.13 0.05 84 1013.7
20260902090017 18 210 8.0 16.1 0.00 0.13 0.05 85 1013.6
20260902085505 17 286 3.2 16.1 0.00 0.15 0.05 86 1013.6
20260902085005 17 178 4.8 16.1 0.00 0.15 0.05 86 1013.7
20260902084505 17 175 1.6 16.1 0.00 0.15 0.05 85 1013.6
20260902084005 17 290 4.8 17.7 0.00 0.15 0.05 86 1013.6
20260902083505 17 239 4.8 20.9 0.00 0.15 0.05 85 1013.6
20260902083003 17 186 4.8 20.9 0.00 0.15 0.05 86 1013.7
20260902082503 17 244 6.4 17.7 0.00 0.15 0.05 86 1013.7
20260902082003 17 171 3.2 14.5 0.00 0.15 0.05 86 1013.6
20260902081503 17 205 4.8 14.5 0.00 0.15 0.05 86 1013.7
20260902081001 17 171 6.4 12.9 0.00 0.15 0.05 88 1013.6
20260902080600 17 205 3.2 11.3 0.00 0.15 0.05 88 1013.6
20260902080059 17 264 3.2 17.7 0.00 0.15 0.05 89 1013.7
20260902075601 17 184 4.8 17.7 0.00 0.15 0.05 90 1013.7
20260902075057 17 308 1.6 9.7 0.00 0.15 0.05 91 1013.6
20260902074556 17 308 3.2 16.1 0.00 0.15 0.05 91 1013.5
20260902074055 16 202 6.4 16.1 0.00 0.15 0.05 91 1013.5
20260902073555 16 321 4.8 12.9 0.00 0.15 0.05 92 1013.5
20260902073054 16 298 3.2 16.1 0.00 0.15 0.05 93 1013.6
20260902072552 16 215 3.2 17.7 0.00 0.15 0.05 93 1013.5
20260902072052 16 331 3.2 16.1 0.00 0.15 0.05 93 1013.6
20260902071551 16 219 0.0 8.0 0.00 0.15 0.05 93 1013.6
20260902071051 16 285 3.2 8.0 0.00 0.15 0.05 94 1013.5
20260902070549 16 99 1.6 9.7 0.00 0.15 0.05 94 1013.5
20260902070050 16 200 1.6 14.5 0.00 0.15 0.05 94 1013.5
20260902065552 16 228 1.6 8.0 0.00 0.15 0.05 94 1013.4
20260902065051 16 216 1.6 8.0 0.00 0.15 0.05 94 1013.3
20260902064549 16 179 1.6 9.7 0.00 0.15 0.05 95 1013.4
20260902064048 15 197 1.6 9.7 0.00 0.15 0.05 95 1013.4
20260902063549 15 190 1.6 6.4 0.00 0.15 0.05 95 1013.4
20260902063055 15 155 1.6 6.4 0.00 0.15 0.05 95 1013.4
20260902062546 15 285 1.6 8.0 0.00 0.15 0.05 95 1013.4
20260902062046 15 247 3.2 9.7 0.00 0.15 0.05 95 1013.4
20260902061601 15 320 1.6 9.7 0.00 0.15 0.05 95 1013.4
20260902061048 15 228 1.6 6.4 0.00 0.15 0.05 95 1013.4
20260902060541 15 230 0.0 8.0 0.00 0.15 0.05 95 1013.5
20260902060043 15 202 3.2 8.0 0.00 0.15 0.05 95 1013.5
20260902055540 15 193 0.0 6.4 0.00 0.15 0.05 95 1013.5
20260902055039 15 292 1.6 6.4 0.00 0.15 0.05 95 1013.5
20260902054540 15 190 1.6 6.4 0.00 0.15 0.05 95 1013.5
20260902054039 15 196 1.6 6.4 0.00 0.15 0.05 95 1013.5
20260902053539 15 257 0.0 4.8 0.00 0.15 0.05 96 1013.5
20260902053040 15 217 0.0 6.4 0.00 0.15 0.05 95 1013.5
20260902052538 15 327 0.0 6.4 0.00 0.15 0.05 96 1013.4
20260902052036 14 194 3.2 8.0 0.00 0.15 0.05 96 1013.4
20260902051553 14 288 1.6 8.0 0.00 0.15 0.05 96 1013.4
20260902051034 14 290 1.6 8.0 0.00 0.15 0.05 95 1013.4
20260902050532 14 270 0.0 8.0 0.00 0.15 0.05 96 1013.3
20260902050033 14 283 1.6 8.0 0.00 0.15 0.05 95 1013.3
20260902045531 14 298 1.6 9.7 0.00 0.15 0.05 95 1013.3
20260902045031 14 195 1.6 4.8 0.00 0.15 0.05 95 1013.2
20260902044558 14 259 0.0 6.4 0.00 0.15 0.05 95 1013.2
20260902044032 14 211 1.6 6.4 0.00 0.15 0.05 95 1013.2
20260902043529 13 255 0.0 4.8 0.00 0.15 0.05 95 1013.2
20260902043031 13 279 0.0 4.8 0.00 0.15 0.05 95 1013.2
20260902042527 13 175 0.0 6.4 0.00 0.15 0.05 95 1013.2
20260902042028 13 190 1.6 6.4 0.00 0.15 0.05 95 1013.2
20260902041532 13 219 0.0 4.8 0.00 0.15 0.05 95 1013.3
20260902041025 13 295 0.0 4.8 0.00 0.15 0.05 95 1013.3
20260902040525 13 205 0.0 6.4 0.00 0.15 0.05 95 1013.3
20260902040028 13 203 1.6 6.4 0.00 0.15 0.05 95 1013.3
20260902035525 13 198 1.6 3.2 0.00 0.15 0.05 95 1013.4
20260902035027 13 213 0.0 3.2 0.03 0.15 0.05 95 1013.4
20260902034524 13 213 0.0 6.4 0.03 0.15 0.05 95 1013.4
20260902034022 13 296 0.0 6.4 0.03 0.15 0.05 95 1013.4
20260902033522 13 315 0.0 4.8 0.03 0.15 0.05 95 1013.4
20260902033022 13 185 1.6 4.8 0.03 0.15 0.05 95 1013.4
20260902032526 13 260 0.0 4.8 0.03 0.15 0.05 95 1013.5
20260902032020 13 202 0.0 6.4 0.03 0.15 0.05 95 1013.4
20260902031538 13 227 1.6 6.4 0.03 0.15 0.05 95 1013.4
20260902031019 13 233 0.0 6.4 0.03 0.15 0.05 95 1013.5
20260902030522 13 230 0.0 8.0 0.03 0.15 0.05 95 1013.6
20260902030018 13 213 0.0 8.0 0.03 0.15 0.05 95 1013.7
20260902025518 13 237 0.0 3.2 0.03 0.18 0.05 94 1013.7
20260902025018 13 237 0.0 4.8 0.00 0.15 0.03 95 1013.7
20260902024518 13 237 0.0 4.8 0.00 0.15 0.03 95 1013.8
20260902024017 13 151 1.6 6.4 0.00 0.15 0.03 95 1013.7
20260902023517 13 165 1.6 6.4 0.00 0.15 0.03 95 1013.7
20260902023022 13 209 0.0 8.0 0.00 0.15 0.03 95 1013.7
20260902022516 13 290 3.2 9.7 0.00 0.15 0.03 95 1013.6
20260902022016 13 304 1.6 6.4 0.00 0.15 0.03 95 1013.7
20260902021514 13 263 1.6 6.4 0.00 0.15 0.03 96 1013.7
20260902021014 13 185 0.0 6.4 0.00 0.15 0.03 95 1013.8
20260902020515 13 238 1.6 6.4 0.00 0.15 0.03 96 1013.8
20260902020013 13 238 1.6 6.4 0.00 0.15 0.03 96 1013.8
20260902015514 12 172 0.0 4.8 0.00 0.15 0.03 95 1013.9
20260902015013 12 219 0.0 6.4 0.00 0.15 0.03 95 1013.8
20260902014515 12 198 1.6 6.4 0.00 0.15 0.03 96 1013.8
20260902014012 12 188 0.0 6.4 0.00 0.15 0.03 95 1013.8
20260902013511 12 245 1.6 6.4 0.00 0.15 0.03 95 1013.8
20260902013013 12 192 0.0 3.2 0.00 0.15 0.03 95 1013.9
20260902012511 12 192 0.0 3.2 0.00 0.15 0.03 95 1013.8
20260902012010 12 214 0.0 3.2 0.00 0.15 0.03 95 1013.9
20260902011516 12 214 0.0 3.2 0.00 0.15 0.03 95 1013.9
20260902011010 12 261 0.0 4.8 0.00 0.15 0.03 95 1013.9
20260902010510 11 281 0.0 4.8 0.00 0.15 0.03 95 1013.9
20260902010009 11 232 0.0 3.2 0.00 0.15 0.03 95 1014.0
20260902005509 11 232 0.0 3.2 0.00 0.15 0.03 95 1014.0
20260902005009 11 232 0.0 4.8 0.00 0.15 0.03 95 1014.0
20260902004508 11 223 0.0 1.6 0.00 0.15 0.03 94 1014.0
20260902004007 11 219 0.0 4.8 0.00 0.15 0.03 94 1014.1
20260902003510 11 219 0.0 4.8 0.00 0.15 0.03 94 1014.1
20260902003007 11 207 0.0 1.6 0.00 0.15 0.03 94 1014.1
20260902002509 11 186 0.0 0.0 0.00 0.15 0.03 93 1014.1
20260902002007 11 186 0.0 0.0 0.00 0.15 0.03 93 1014.2
20260902001506 11 186 0.0 0.0 0.00 0.15 0.03 93 1014.2
20260902001003 11 186 0.0 0.0 0.00 0.15 0.03 93 1014.2
20260902000503 11 186 0.0 0.0 0.00 0.15 0.03 93 1014.2
20260902000007 11 186 0.0 0.0 0.00 0.15 0.03 93 1014.2
20260901235501 11 186 0.0 0.0 0.00 0.18 0.03 93 1014.3
20260901235000 11 186 0.0 0.0 0.00 0.18 0.03 92 1014.3
20260901234608 11 186 0.0 0.0 0.00 0.18 0.03 92 1014.3
20260901234104 11 186 0.0 0.0 0.00 0.18 0.03 92 1014.2
20260901233558 12 186 0.0 1.6 0.00 0.18 0.03 92 1014.3
20260901233057 12 186 0.0 1.6 0.00 0.18 0.03 92 1014.3
20260901232557 12 186 0.0 3.2 0.03 0.18 0.03 93 1014.3
20260901232059 12 186 0.0 3.2 0.03 0.18 0.03 92 1014.4
20260901231605 12 269 0.0 3.2 0.03 0.18 0.03 92 1014.4
20260901231054 12 113 0.0 4.8 0.03 0.18 0.03 92 1014.5
20260901230555 12 246 0.0 3.2 0.03 0.18 0.03 92 1014.5
20260901230106 12 274 0.0 3.2 0.03 0.18 0.03 92 1014.5
20260901225553 12 247 0.0 4.8 0.03 0.18 0.03 92 1014.5
20260901225053 12 188 1.6 4.8 0.03 0.18 0.03 92 1014.4
20260901224554 12 276 0.0 6.4 0.03 0.18 0.03 91 1014.4
20260901224058 12 286 0.0 9.7 0.03 0.18 0.03 92 1014.5
20260901223556 12 313 1.6 4.8 0.03 0.18 0.03 91 1014.6
20260901223051 12 298 0.0 6.4 0.03 0.18 0.03 91 1014.5
20260901222551 12 320 1.6 8.0 0.00 0.15 0.00 91 1014.5
20260901222050 12 218 0.0 8.0 0.00 0.15 0.00 91 1014.4
20260901221604 13 307 1.6 3.2 0.00 0.15 0.00 91 1014.4
20260901221048 13 206 0.0 6.4 0.00 0.15 0.00 91 1014.3
20260901220548 13 272 0.0 11.3 0.00 0.15 0.00 91 1014.3
20260901220045 13 225 1.6 11.3 0.00 0.15 0.00 90 1014.3
20260901215545 13 279 1.6 9.7 0.00 0.15 0.15 91 1014.3
20260901215045 13 286 1.6 12.9 0.00 0.15 0.15 91 1014.3
20260901214544 13 278 4.8 12.9 0.00 0.15 0.15 91 1014.4
20260901214045 13 261 4.8 12.9 0.00 0.15 0.15 91 1014.4
20260901213546 13 322 1.6 14.5 0.00 0.15 0.15 91 1014.4
20260901213048 13 182 4.8 16.1 0.00 0.15 0.15 91 1014.4
20260901212643 13 240 1.6 16.1 0.00 0.15 0.15 91 1014.4
20260901212043 13 273 1.6 4.8 0.00 0.15 0.15 91 1014.3
20260901211543 13 177 0.0 6.4 0.00 0.15 0.15 91 1014.3
20260901211042 13 296 0.0 6.4 0.00 0.15 0.15 91 1014.3
20260901210545 13 286 1.6 8.0 0.00 0.15 0.15 91 1014.2